#timestamp,LO_Frequency,Hit 
1499641215.3,286047002.7,N
1499641235.1,286047002.5,N
1499641255.9,286047001.8,N
1499641275.7,286047004.3,N
1499641295.6,286047001.4,N
1499641315.4,286047004.3,N
1499641335.2,286047001.7,N
1499641355.1,286047001.4,N
1499641356.0,286047001.4,N
1499641375.8,286047001.9,N
1499641395.7,286047001.9,N
1499641415.5,286047003.6,N
1499641435.3,286047001.8,N
1499641455.2,286047001.6,N
1499641475.9,286047002.2,N
1499641495.7,286047002.1,N
1499641515.6,286047002.2,N
1499641535.4,286047002.4,N
1499641555.3,286047002.8,N
1499641575.1,286047002.7,N
1499641595.8,286047002.3,N
1499641615.7,286047003.7,N
1499641635.5,286047003.9,N
1499641655.4,286047001.3,N
1499641675.2,286047001.5,N
1499641695.0,286047003.8,N
1499641695.9,286047003.8,N
1499641715.8,286047002.9,N
1499641735.6,286047003.5,N
1499641755.5,286047003.1,N
1499641775.3,286047005.8,N
1499641795.1,286047005.3,N
1499641815.9,286047005.4,N
1499641835.7,286047005.8,N
1499641855.5,286047003.2,N
1499641875.4,286047003.8,N
1499641895.2,286047003.9,N
1499641945.1,286047003.6,Y
1499641955.0,286047000.2,N
1499641955.9,286047000.2,N
1499641975.8,286046998.5,N
1499641995.6,286047000.7,N
1499642015.4,286046998.9,N
1499642035.3,286046997.0,N
1499642055.1,286046997.4,N
1499642075.8,286046997.5,N
1499642095.7,286046997.0,N
1499642115.5,286046997.5,N
1499642135.4,286046995.3,N
1499642155.2,286046995.7,N
1499642175.0,286046995.7,N
1499642175.9,286046995.7,N
1499642195.8,286046996.3,N
1499642215.6,286046993.7,N
1499642235.5,286046993.5,N
1499642255.3,286046995.7,N
1499642275.1,286046993.6,N
1499642295.9,286046993.5,N
1499642315.7,286046994.0,N
1499642335.6,286046993.3,N
1499642355.4,286046993.8,N
1499642375.2,286046993.8,N
1499642395.1,286046994.2,N
1499642396.0,286046994.2,N
1499642415.8,286046993.5,N
1499642435.7,286046995.8,N
1499642455.5,286046993.4,N
1499642475.3,286046995.9,N
1499642495.2,286046993.3,N
1499642515.0,286046996.1,N
1499642515.9,286046996.1,N
1499642535.7,286046995.9,N
1499642555.6,286046994.0,N
1499642575.4,286046993.3,N
1499642595.3,286046993.5,N
1499642615.1,286046994.0,N
1499642635.8,286046994.7,N
1499642655.7,286046992.2,N
1499642675.5,286046993.0,N
1499642695.4,286046992.7,N
1499642715.2,286046990.2,N
1499642735.0,286046992.7,N
1499642735.9,286046992.7,N
1499642785.8,286046990.5,Y
1499642795.7,286046996.2,N
1499642815.6,286047001.2,N
1499642835.4,286046998.4,N
1499642855.2,286047000.6,N
1499642875.1,286047000.5,N
1499642876.0,286047000.5,N
1499642895.8,286047000.6,N
1499642915.6,286046999.8,N
1499642935.5,286046999.8,N
1499642955.3,286047002.5,N
1499642975.2,286046999.8,N
1499642995.9,286047000.7,N
1499643015.7,286046998.4,N
1499643035.6,286046999.3,N
1499643055.4,286046999.2,N
1499643075.2,286046998.8,N
1499643095.1,286046999.3,N
1499643096.0,286046999.3,N
1499643115.8,286046999.3,N
1499643135.7,286046998.9,N
1499643155.5,286046999.4,N
1499643175.3,286046998.7,N
1499643195.2,286046998.8,N
1499643215.0,286046998.2,N
1499643215.9,286046998.2,N
1499643235.8,286046998.5,N
1499643255.6,286046999.1,N
1499643275.4,286046996.5,N
1499643295.3,286046996.9,N
1499643315.1,286046996.9,N
1499643335.8,286046997.2,N
1499643355.7,286046999.4,N
1499643375.5,286046997.1,N
1499643395.4,286046996.9,N
1499643415.2,286046997.4,N
1499643435.0,286046997.5,N
1499643435.9,286046997.5,N
1499643455.8,286046997.5,N
1499643475.6,286046995.0,N
1499643495.4,286046995.4,N
1499643515.3,286046997.2,N
1499643535.1,286046997.2,N
1499643555.9,286046997.8,N
1499643575.7,286046997.4,N
1499643595.5,286046996.8,N
1499643615.4,286046996.9,N
1499643635.2,286046998.8,N
1499643655.1,286046998.4,N
1499643656.0,286046998.4,N
1499643675.8,286047001.0,N
1499643695.6,286047000.7,N
1499643715.5,286046999.8,N
1499643735.3,286046999.7,N
1499643755.1,286047002.3,N
1499643775.9,286047000.2,N
1499643795.7,286046999.9,N
1499643815.6,286047000.1,N
1499643835.4,286047000.6,N
1499643855.2,286047000.8,N
1499643875.1,286047000.3,N
1499643876.0,286047000.3,N
1499643895.8,286047001.4,N
1499643915.6,286047002.6,N
1499643965.5,286047000.4,Y
1499643975.4,286046999.8,N
1499643995.3,286046999.7,N
1499644015.1,286047002.7,N
1499644035.8,286047001.1,N
1499644055.7,286047000.3,N
1499644075.5,286047000.8,N
1499644095.4,286046998.1,N
1499644115.2,286046998.9,N
1499644135.0,286046999.9,N
1499644135.9,286046999.9,N
1499644155.8,286047000.2,N
1499644175.6,286047001.3,N
1499644195.4,286047003.9,N
1499644215.3,286047002.0,N
1499644235.1,286047004.4,N
1499644255.9,286047002.5,N
1499644275.7,286047001.6,N
1499644295.5,286047002.0,N
1499644315.4,286046999.8,N
1499644335.2,286047002.2,N
1499644355.0,286047001.8,N
1499644356.0,286047001.8,N
1499644375.8,286047002.7,N
1499644395.6,286047002.0,N
1499644445.5,286047002.0,Y
1499644455.4,286047000.1,N
1499644475.3,286046998.9,N
1499644495.1,286046999.3,N
1499644496.0,286046999.3,N
1499644515.8,286046999.6,N
1499644535.7,286046997.7,N
1499644555.5,286046999.6,N
1499644575.3,286046997.2,N
1499644595.2,286046999.5,N
1499644615.0,286046998.3,N
1499644615.9,286046998.3,N
1499644635.8,286046998.7,N
1499644655.6,286046998.9,N
1499644675.4,286047000.4,N
1499644695.3,286046998.5,N
1499644715.1,286047001.0,N
1499644735.8,286047000.5,N
1499644755.7,286047000.0,N
1499644775.5,286047002.8,N
1499644795.4,286047002.7,N
